Home   Weather   Porto Alegre   Past weeks

Flag for Brazil Past Weather in Porto Alegre, Rio Grande do Sul, Brazil — Yesterday and Last 2 Weeks

Now
70 °F

Passing clouds.


Feels Like: 70 °F
Forecast: 64 / 77 °F
Wind: 10 mph from Southeast

Location: Porto Alegre Aero-Porto

Current Time: Dec 9, 2016 at 9:42:42 am

Latest Report: Dec 9, 2016 at 9:00 am


Visibility: N/A

Pressure: 29.95 "Hg

Humidity: 57%

Dew Point: 54 °F

Location of Porto AlegreLocation

Past Weather in Porto Alegre — Graph

°F

Porto Alegre Temperature Yesterday

Maximum temperature yesterday: 86 °F (at 5:00 pm)
Minimum temperature yesterday: 48 °F (at 6:00 am)
Average temperature yesterday: 74 °F

High & Low Weather Summary for the Past Weeks

 TemperatureHumidityPressure
High91 °F (Nov 26, 4:00 pm)100% (Dec 8, 6:00 am)30.21 "Hg (Dec 8, 6:00 am)
Low48 °F (Dec 8, 6:00 am)22% (Dec 3, 12:00 pm)29.71 "Hg (Dec 3, 6:00 pm)
Average73 °F67%29.91 "Hg
* Reported Nov 24 8:00 am — Dec 9 8:00 am, Porto Alegre, Weather by CustomWeather, © 2016

Note: Actual official high and low records may vary slightly from our data, if they occured in-between our weather recording intervals... More about our weather records

Advertising

Porto Alegre Weather History for the Previous 24 Hours

Scroll right to see more
 ConditionsComfort  
Time TempWeatherWind HumidityBarometerVisibility
8:00 am
Fri, Dec 9
68 °FSunny.8 mph60%29.92 "Hg10 mi
7:00 am66 °FSunny.7 mph64%29.92 "Hg10 mi
6:00 am64 °FClear.6 mph68%29.89 "Hg10 mi
5:00 am66 °FPassing clouds.7 mph64%29.89 "HgN/A
4:00 am66 °FPassing clouds.7 mph64%29.92 "HgN/A
3:00 am66 °FOvercast.8 mph68%29.92 "HgN/A
2:00 am68 °FOvercast.10 mph69%29.92 "HgN/A
1:00 am68 °FOvercast.13 mph69%29.92 "HgN/A
12:00 am70 °FOvercast.14 mph64%29.92 "HgN/A
11:00 pm
Thu, Dec 8
70 °FMostly cloudy.12 mph73%29.92 "HgN/A
10:00 pm72 °FClear.15 mph69%29.89 "Hg10 mi
9:00 pm72 °FPassing clouds.20 mph73%29.83 "HgN/A
8:00 pm77 °FScattered clouds.17 mph65%29.83 "HgN/A
7:00 pm84 °FPassing clouds.10 mph27%29.77 "HgN/A
6:00 pm86 °FPassing clouds.12 mph25%29.77 "HgN/A
5:00 pm86 °FPassing clouds.8 mph27%29.77 "HgN/A
4:00 pm84 °FPassing clouds.9 mph45%29.77 "HgN/A
3:00 pm82 °FPassing clouds.5 mph55%29.80 "HgN/A
2:00 pm81 °FScattered clouds.6 mph58%29.80 "HgN/A
1:00 pm79 °FBroken clouds.8 mph61%29.80 "HgN/A
12:00 pm79 °FPartly sunny.2 mph58%29.80 "HgN/A
11:00 am75 °FPartly sunny.2 mph65%29.83 "HgN/A
10:00 am73 °FBroken clouds.2 mph74%29.83 "HgN/A
9:00 am72 °FPartly sunny.2 mph78%29.83 "HgN/A
Weather by CustomWeather, © 2016

See weather overviewHow to use our weather pages